Data supplied by UK-AIR on 3/1/2024
All Data GMT hour ending 
Status: R =Ratified P=Provisional,P*=As supplied
,,Borehamwood Meadow Park,,,,,,,,,,,,,,,,,,,,,,,
Date,time,"PM<sub>10</sub> particulate matter (Hourly measured)",status,unit,"Nitric oxide",status,unit,"Nitrogen dioxide",status,unit,"Nitrogen oxides as nitrogen dioxide",status,unit,"PM<sub>2.5</sub> particulate matter (Hourly measured)",status,unit
 
01-01-2023,01:00,8.500,R,ugm-3 (FIDAS),0.24946,R,ugm-3,4.39875,R,ugm-3,4.78125,R,ugm-3,6.132,R,ugm-3 (Ref.eq)
01-01-2023,02:00,7.900,R,ugm-3 (FIDAS),0.24946,R,ugm-3,4.78125,R,ugm-3,5.16375,R,ugm-3,5.189,R,ugm-3 (Ref.eq)
01-01-2023,03:00,8.900,R,ugm-3 (FIDAS),0.12473,R,ugm-3,2.10375,R,ugm-3,2.29500,R,ugm-3,4.811,R,ugm-3 (Ref.eq)
01-01-2023,04:00,11.400,R,ugm-3 (FIDAS),0.00000,R,ugm-3,1.72125,R,ugm-3,1.72125,R,ugm-3,5.943,R,ugm-3 (Ref.eq)
01-01-2023,05:00,11.400,R,ugm-3 (FIDAS),0.00000,R,ugm-3,2.29500,R,ugm-3,2.29500,R,ugm-3,6.038,R,ugm-3 (Ref.eq)
01-01-2023,06:00,12.900,R,ugm-3 (FIDAS),0.00000,R,ugm-3,2.86875,R,ugm-3,2.86875,R,ugm-3,6.604,R,ugm-3 (Ref.eq)
01-01-2023,07:00,13.100,R,ugm-3 (FIDAS),0.12473,R,ugm-3,4.01625,R,ugm-3,4.20750,R,ugm-3,6.981,R,ugm-3 (Ref.eq)
01-01-2023,08:00,14.700,R,ugm-3 (FIDAS),0.12473,R,ugm-3,5.16375,R,ugm-3,5.35500,R,ugm-3,8.019,R,ugm-3 (Ref.eq)
01-01-2023,09:00,8.300,R,ugm-3 (FIDAS),0.12473,R,ugm-3,3.44250,R,ugm-3,3.63375,R,ugm-3,4.717,R,ugm-3 (Ref.eq)
01-01-2023,10:00,10.300,R,ugm-3 (FIDAS),0.24946,R,ugm-3,4.39875,R,ugm-3,4.78125,R,ugm-3,5.943,R,ugm-3 (Ref.eq)
01-01-2023,11:00,12.700,R,ugm-3 (FIDAS),0.49892,R,ugm-3,6.50250,R,ugm-3,7.26750,R,ugm-3,6.887,R,ugm-3 (Ref.eq)
01-01-2023,12:00,,,,1.12257,R,ugm-3,11.47500,R,ugm-3,13.00500,R,ugm-3,,,
01-01-2023,13:00,,,,1.12257,R,ugm-3,11.09250,R,ugm-3,12.81375,R,ugm-3,,,
01-01-2023,14:00,,,,0.74838,R,ugm-3,9.18000,R,ugm-3,10.13625,R,ugm-3,,,
01-01-2023,15:00,,,,0.49892,R,ugm-3,8.22375,R,ugm-3,9.18000,R,ugm-3,,,
01-01-2023,16:00,,,,0.49892,R,ugm-3,11.09250,R,ugm-3,11.66625,R,ugm-3,,,
01-01-2023,17:00,,,,0.49892,R,ugm-3,12.81375,R,ugm-3,13.57875,R,ugm-3,,,
01-01-2023,18:00,,,,0.24946,R,ugm-3,10.13625,R,ugm-3,10.51875,R,ugm-3,,,
01-01-2023,19:00,,,,0.24946,R,ugm-3,14.91750,R,ugm-3,15.30000,R,ugm-3,,,
01-01-2023,20:00,,,,0.24946,R,ugm-3,19.50750,R,ugm-3,20.08125,R,ugm-3,,,
01-01-2023,21:00,,,,0.24946,R,ugm-3,10.32750,R,ugm-3,10.71000,R,ugm-3,,,
01-01-2023,22:00,,,,0.12473,R,ugm-3,7.84125,R,ugm-3,8.03250,R,ugm-3,,,
01-01-2023,23:00,,,,0.24946,R,ugm-3,8.98875,R,ugm-3,9.37125,R,ugm-3,,,
01-01-2023,24:00,,,,0.24946,R,ugm-3,14.72625,R,ugm-3,15.10875,R,ugm-3,,,
02-01-2023,01:00,,,,0.49892,R,ugm-3,14.72625,R,ugm-3,15.49125,R,ugm-3,,,
02-01-2023,02:00,,,,0.24946,R,ugm-3,21.61125,R,ugm-3,21.99375,R,ugm-3,,,
02-01-2023,03:00,,,,0.24946,R,ugm-3,8.03250,R,ugm-3,8.41500,R,ugm-3,,,
02-01-2023,04:00,,,,0.12473,R,ugm-3,3.82500,R,ugm-3,4.01625,R,ugm-3,,,
02-01-2023,05:00,,,,0.12473,R,ugm-3,4.59000,R,ugm-3,4.78125,R,ugm-3,,,
02-01-2023,06:00,,,,0.24946,R,ugm-3,6.50250,R,ugm-3,6.88500,R,ugm-3,,,
02-01-2023,07:00,,,,0.24946,R,ugm-3,7.84125,R,ugm-3,8.22375,R,ugm-3,,,
02-01-2023,08:00,,,,0.24946,R,ugm-3,7.45875,R,ugm-3,7.84125,R,ugm-3,,,
02-01-2023,09:00,,,,0.37419,R,ugm-3,9.94500,R,ugm-3,10.51875,R,ugm-3,,,
02-01-2023,10:00,,,,0.87311,R,ugm-3,8.41500,R,ugm-3,9.75375,R,ugm-3,,,
02-01-2023,11:00,,,,1.74622,R,ugm-3,10.13625,R,ugm-3,12.81375,R,ugm-3,,,
02-01-2023,12:00,,,,1.24730,R,ugm-3,5.35500,R,ugm-3,7.26750,R,ugm-3,,,
02-01-2023,13:00,,,,1.12257,R,ugm-3,5.16375,R,ugm-3,6.88500,R,ugm-3,,,
02-01-2023,14:00,,,,0.87311,R,ugm-3,4.39875,R,ugm-3,5.92875,R,ugm-3,,,
02-01-2023,15:00,,,,1.12257,R,ugm-3,7.45875,R,ugm-3,9.18000,R,ugm-3,,,
02-01-2023,16:00,,,,0.99784,R,ugm-3,16.25625,R,ugm-3,17.97750,R,ugm-3,,,
02-01-2023,17:00,,,,1.49676,R,ugm-3,30.98250,R,ugm-3,33.27750,R,ugm-3,,,
02-01-2023,18:00,,,,8.73110,R,ugm-3,46.85625,R,ugm-3,60.05250,R,ugm-3,,,
02-01-2023,19:00,,,,9.72894,R,ugm-3,41.31000,R,ugm-3,56.41875,R,ugm-3,,,
02-01-2023,20:00,,,,20.33099,R,ugm-3,41.50125,R,ugm-3,72.67500,R,ugm-3,,,
02-01-2023,21:00,,,,27.93952,R,ugm-3,46.47375,R,ugm-3,89.31375,R,ugm-3,,,
02-01-2023,22:00,,,,14.46868,R,ugm-3,50.87250,R,ugm-3,73.05750,R,ugm-3,,,
02-01-2023,23:00,,,,16.09017,R,ugm-3,45.13500,R,ugm-3,69.80625,R,ugm-3,,,
02-01-2023,24:00,,,,4.36555,R,ugm-3,32.51250,R,ugm-3,39.01500,R,ugm-3,,,
03-01-2023,01:00,,,,4.61501,R,ugm-3,40.73625,R,ugm-3,47.62125,R,ugm-3,,,
03-01-2023,02:00,,,,7.35907,R,ugm-3,55.84500,R,ugm-3,67.12875,R,ugm-3,,,
03-01-2023,03:00,,,,4.86447,R,ugm-3,51.06375,R,ugm-3,58.33125,R,ugm-3,,,
03-01-2023,04:00,,,,3.99136,R,ugm-3,46.66500,R,ugm-3,52.78500,R,ugm-3,,,
03-01-2023,05:00,,,,0.87311,R,ugm-3,28.30500,R,ugm-3,29.64375,R,ugm-3,,,
03-01-2023,06:00,,,,0.74838,R,ugm-3,23.52375,R,ugm-3,24.67125,R,ugm-3,,,
03-01-2023,07:00,,,,2.49460,R,ugm-3,33.85125,R,ugm-3,37.67625,R,ugm-3,,,
03-01-2023,08:00,,,,3.11825,R,ugm-3,38.05875,R,ugm-3,42.84000,R,ugm-3,,,
03-01-2023,09:00,,,,1.87095,R,ugm-3,27.34875,R,ugm-3,30.21750,R,ugm-3,,,
03-01-2023,10:00,,,,,,,,,,,,,,,
03-01-2023,11:00,,,,,,,,,,,,,,,
03-01-2023,12:00,,,,,,,,,,,,,,,
03-01-2023,13:00,,,,,,,,,,,,,,,
03-01-2023,14:00,,,,,,,,,,,,,,,
03-01-2023,15:00,,,,,,,,,,,,,,,
03-01-2023,16:00,,,,,,,,,,,,,,,
03-01-2023,17:00,,,,,,,,,,,,,,,
03-01-2023,18:00,,,,,,,,,,,,,,,
03-01-2023,19:00,,,,,,,,,,,,,,,
03-01-2023,20:00,,,,,,,,,,,,,,,
03-01-2023,21:00,,,,,,,,,,,,,,,
03-01-2023,22:00,,,,,,,,,,,,,,,
03-01-2023,23:00,,,,,,,,,,,,,,,
03-01-2023,24:00,,,,,,,,,,,,,,,
04-01-2023,01:00,,,,,,,,,,,,,,,
04-01-2023,02:00,,,,,,,,,,,,,,,
04-01-2023,03:00,,,,,,,,,,,,,,,
04-01-2023,04:00,,,,,,,,,,,,,,,
04-01-2023,05:00,,,,,,,,,,,,,,,
04-01-2023,06:00,,,,,,,,,,,,,,,
04-01-2023,07:00,,,,,,,,,,,,,,,
04-01-2023,08:00,,,,,,,,,,,,,,,
04-01-2023,09:00,,,,,,,,,,,,,,,
04-01-2023,10:00,,,,,,,,,,,,,,,
04-01-2023,11:00,,,,,,,,,,,,,,,
04-01-2023,12:00,11.000,R,ugm-3 (FIDAS),0.62365,R,ugm-3,4.20750,R,ugm-3,5.35500,R,ugm-3,6.887,R,ugm-3 (Ref.eq)
04-01-2023,13:00,11.000,R,ugm-3 (FIDAS),0.74838,R,ugm-3,3.63375,R,ugm-3,4.97250,R,ugm-3,7.170,R,ugm-3 (Ref.eq)
04-01-2023,14:00,11.400,R,ugm-3 (FIDAS),0.49892,R,ugm-3,3.06000,R,ugm-3,3.82500,R,ugm-3,7.359,R,ugm-3 (Ref.eq)
04-01-2023,15:00,11.200,R,ugm-3 (FIDAS),0.62365,R,ugm-3,3.06000,R,ugm-3,4.01625,R,ugm-3,6.981,R,ugm-3 (Ref.eq)
04-01-2023,16:00,12.600,R,ugm-3 (FIDAS),0.49892,R,ugm-3,4.01625,R,ugm-3,4.78125,R,ugm-3,7.925,R,ugm-3 (Ref.eq)
04-01-2023,17:00,13.400,R,ugm-3 (FIDAS),0.37419,R,ugm-3,3.63375,R,ugm-3,4.01625,R,ugm-3,8.774,R,ugm-3 (Ref.eq)
04-01-2023,18:00,15.000,R,ugm-3 (FIDAS),0.37419,R,ugm-3,2.86875,R,ugm-3,3.44250,R,ugm-3,9.623,R,ugm-3 (Ref.eq)
04-01-2023,19:00,16.700,R,ugm-3 (FIDAS),0.74838,R,ugm-3,4.01625,R,ugm-3,4.97250,R,ugm-3,10.472,R,ugm-3 (Ref.eq)
04-01-2023,20:00,17.400,R,ugm-3 (FIDAS),0.24946,R,ugm-3,2.86875,R,ugm-3,3.25125,R,ugm-3,11.132,R,ugm-3 (Ref.eq)
04-01-2023,21:00,17.600,R,ugm-3 (FIDAS),0.12473,R,ugm-3,3.63375,R,ugm-3,3.82500,R,ugm-3,11.226,R,ugm-3 (Ref.eq)
04-01-2023,22:00,16.900,R,ugm-3 (FIDAS),0.12473,R,ugm-3,3.06000,R,ugm-3,3.25125,R,ugm-3,10.472,R,ugm-3 (Ref.eq)
04-01-2023,23:00,16.000,R,ugm-3 (FIDAS),0.24946,R,ugm-3,3.63375,R,ugm-3,4.01625,R,ugm-3,10.000,R,ugm-3 (Ref.eq)
04-01-2023,24:00,16.900,R,ugm-3 (FIDAS),0.12473,R,ugm-3,2.48625,R,ugm-3,2.67750,R,ugm-3,10.094,R,ugm-3 (Ref.eq)
05-01-2023,01:00,17.000,R,ugm-3 (FIDAS),0.12473,R,ugm-3,0.76500,R,ugm-3,0.95625,R,ugm-3,10.566,R,ugm-3 (Ref.eq)
05-01-2023,02:00,18.800,R,ugm-3 (FIDAS),0.00000,R,ugm-3,3.63375,R,ugm-3,3.63375,R,ugm-3,11.321,R,ugm-3 (Ref.eq)
05-01-2023,03:00,20.000,R,ugm-3 (FIDAS),0.00000,R,ugm-3,1.91250,R,ugm-3,2.10375,R,ugm-3,12.170,R,ugm-3 (Ref.eq)
05-01-2023,04:00,18.800,R,ugm-3 (FIDAS),0.24946,R,ugm-3,3.06000,R,ugm-3,3.44250,R,ugm-3,11.415,R,ugm-3 (Ref.eq)
05-01-2023,05:00,18.100,R,ugm-3 (FIDAS),0.12473,R,ugm-3,2.10375,R,ugm-3,2.29500,R,ugm-3,10.943,R,ugm-3 (Ref.eq)
05-01-2023,06:00,19.000,R,ugm-3 (FIDAS),0.24946,R,ugm-3,3.82500,R,ugm-3,4.20750,R,ugm-3,10.943,R,ugm-3 (Ref.eq)
05-01-2023,07:00,18.000,R,ugm-3 (FIDAS),0.62365,R,ugm-3,12.81375,R,ugm-3,13.96125,R,ugm-3,10.660,R,ugm-3 (Ref.eq)
05-01-2023,08:00,18.600,R,ugm-3 (FIDAS),0.87311,R,ugm-3,16.63875,R,ugm-3,18.16875,R,ugm-3,10.943,R,ugm-3 (Ref.eq)
05-01-2023,09:00,17.100,R,ugm-3 (FIDAS),1.87095,R,ugm-3,24.48000,R,ugm-3,27.34875,R,ugm-3,10.000,R,ugm-3 (Ref.eq)
05-01-2023,10:00,13.000,R,ugm-3 (FIDAS),3.61717,R,ugm-3,29.26125,R,ugm-3,34.99875,R,ugm-3,8.302,R,ugm-3 (Ref.eq)
05-01-2023,11:00,8.200,R,ugm-3 (FIDAS),2.24514,R,ugm-3,17.59500,R,ugm-3,21.03750,R,ugm-3,5.377,R,ugm-3 (Ref.eq)
05-01-2023,12:00,3.900,R,ugm-3 (FIDAS),1.12257,R,ugm-3,6.50250,R,ugm-3,8.22375,R,ugm-3,2.359,R,ugm-3 (Ref.eq)
05-01-2023,13:00,3.800,R,ugm-3 (FIDAS),0.74838,R,ugm-3,6.12000,R,ugm-3,7.26750,R,ugm-3,2.264,R,ugm-3 (Ref.eq)
05-01-2023,14:00,3.900,R,ugm-3 (FIDAS),0.74838,R,ugm-3,6.88500,R,ugm-3,8.03250,R,ugm-3,2.547,R,ugm-3 (Ref.eq)
05-01-2023,15:00,7.000,R,ugm-3 (FIDAS),0.74838,R,ugm-3,7.07625,R,ugm-3,8.22375,R,ugm-3,4.623,R,ugm-3 (Ref.eq)
05-01-2023,16:00,7.600,R,ugm-3 (FIDAS),0.99784,R,ugm-3,9.18000,R,ugm-3,10.71000,R,ugm-3,4.717,R,ugm-3 (Ref.eq)
05-01-2023,17:00,7.400,R,ugm-3 (FIDAS),0.62365,R,ugm-3,10.71000,R,ugm-3,11.47500,R,ugm-3,4.623,R,ugm-3 (Ref.eq)
05-01-2023,18:00,5.900,R,ugm-3 (FIDAS),0.74838,R,ugm-3,13.38750,R,ugm-3,14.53500,R,ugm-3,4.057,R,ugm-3 (Ref.eq)
05-01-2023,19:00,9.100,R,ugm-3 (FIDAS),1.12257,R,ugm-3,19.69875,R,ugm-3,21.42000,R,ugm-3,6.132,R,ugm-3 (Ref.eq)
05-01-2023,20:00,7.000,R,ugm-3 (FIDAS),0.49892,R,ugm-3,16.06500,R,ugm-3,16.63875,R,ugm-3,4.717,R,ugm-3 (Ref.eq)
05-01-2023,21:00,7.400,R,ugm-3 (FIDAS),0.49892,R,ugm-3,12.24000,R,ugm-3,13.00500,R,ugm-3,4.811,R,ugm-3 (Ref.eq)
05-01-2023,22:00,7.200,R,ugm-3 (FIDAS),0.24946,R,ugm-3,10.90125,R,ugm-3,11.28375,R,ugm-3,4.717,R,ugm-3 (Ref.eq)
05-01-2023,23:00,5.600,R,ugm-3 (FIDAS),0.24946,R,ugm-3,6.69375,R,ugm-3,7.07625,R,ugm-3,3.491,R,ugm-3 (Ref.eq)
05-01-2023,24:00,3.800,R,ugm-3 (FIDAS),0.12473,R,ugm-3,6.12000,R,ugm-3,6.31125,R,ugm-3,2.359,R,ugm-3 (Ref.eq)
06-01-2023,01:00,2.800,R,ugm-3 (FIDAS),0.12473,R,ugm-3,2.67750,R,ugm-3,2.86875,R,ugm-3,1.792,R,ugm-3 (Ref.eq)
06-01-2023,02:00,1.600,R,ugm-3 (FIDAS),0.12473,R,ugm-3,3.25125,R,ugm-3,3.44250,R,ugm-3,0.943,R,ugm-3 (Ref.eq)
06-01-2023,03:00,1.300,R,ugm-3 (FIDAS),0.00000,R,ugm-3,0.76500,R,ugm-3,0.76500,R,ugm-3,0.660,R,ugm-3 (Ref.eq)
06-01-2023,04:00,1.800,R,ugm-3 (FIDAS),0.00000,R,ugm-3,1.91250,R,ugm-3,1.91250,R,ugm-3,0.849,R,ugm-3 (Ref.eq)
06-01-2023,05:00,2.400,R,ugm-3 (FIDAS),0.00000,R,ugm-3,2.29500,R,ugm-3,2.48625,R,ugm-3,1.321,R,ugm-3 (Ref.eq)
06-01-2023,06:00,3.100,R,ugm-3 (FIDAS),0.24946,R,ugm-3,4.59000,R,ugm-3,4.97250,R,ugm-3,1.698,R,ugm-3 (Ref.eq)
06-01-2023,07:00,3.200,R,ugm-3 (FIDAS),0.62365,R,ugm-3,11.47500,R,ugm-3,12.24000,R,ugm-3,1.509,R,ugm-3 (Ref.eq)
06-01-2023,08:00,3.100,R,ugm-3 (FIDAS),1.49676,R,ugm-3,18.36000,R,ugm-3,20.46375,R,ugm-3,1.509,R,ugm-3 (Ref.eq)
06-01-2023,09:00,4.100,R,ugm-3 (FIDAS),2.99352,R,ugm-3,33.85125,R,ugm-3,38.44125,R,ugm-3,2.075,R,ugm-3 (Ref.eq)
06-01-2023,10:00,5.700,R,ugm-3 (FIDAS),9.97840,R,ugm-3,45.70875,R,ugm-3,61.00875,R,ugm-3,3.019,R,ugm-3 (Ref.eq)
06-01-2023,11:00,6.200,R,ugm-3 (FIDAS),5.61285,R,ugm-3,29.07000,R,ugm-3,37.67625,R,ugm-3,3.208,R,ugm-3 (Ref.eq)
06-01-2023,12:00,7.000,R,ugm-3 (FIDAS),4.24082,R,ugm-3,26.39250,R,ugm-3,32.70375,R,ugm-3,3.679,R,ugm-3 (Ref.eq)
06-01-2023,13:00,7.400,R,ugm-3 (FIDAS),4.24082,R,ugm-3,24.48000,R,ugm-3,30.98250,R,ugm-3,3.962,R,ugm-3 (Ref.eq)
06-01-2023,14:00,8.000,R,ugm-3 (FIDAS),1.87095,R,ugm-3,17.02125,R,ugm-3,19.89000,R,ugm-3,4.528,R,ugm-3 (Ref.eq)
06-01-2023,15:00,7.200,R,ugm-3 (FIDAS),1.24730,R,ugm-3,15.10875,R,ugm-3,17.02125,R,ugm-3,3.868,R,ugm-3 (Ref.eq)
06-01-2023,16:00,6.400,R,ugm-3 (FIDAS),1.24730,R,ugm-3,22.37625,R,ugm-3,24.28875,R,ugm-3,3.491,R,ugm-3 (Ref.eq)
06-01-2023,17:00,5.900,R,ugm-3 (FIDAS),1.37203,R,ugm-3,27.54000,R,ugm-3,29.83500,R,ugm-3,3.491,R,ugm-3 (Ref.eq)
06-01-2023,18:00,4.500,R,ugm-3 (FIDAS),1.37203,R,ugm-3,26.39250,R,ugm-3,28.49625,R,ugm-3,3.302,R,ugm-3 (Ref.eq)
06-01-2023,19:00,5.000,R,ugm-3 (FIDAS),2.49460,R,ugm-3,20.84625,R,ugm-3,24.67125,R,ugm-3,4.245,R,ugm-3 (Ref.eq)
06-01-2023,20:00,5.700,R,ugm-3 (FIDAS),0.74838,R,ugm-3,13.00500,R,ugm-3,14.15250,R,ugm-3,4.528,R,ugm-3 (Ref.eq)
06-01-2023,21:00,6.500,R,ugm-3 (FIDAS),0.37419,R,ugm-3,8.41500,R,ugm-3,8.98875,R,ugm-3,4.811,R,ugm-3 (Ref.eq)
06-01-2023,22:00,5.400,R,ugm-3 (FIDAS),0.24946,R,ugm-3,5.92875,R,ugm-3,6.50250,R,ugm-3,3.585,R,ugm-3 (Ref.eq)
06-01-2023,23:00,5.300,R,ugm-3 (FIDAS),0.24946,R,ugm-3,4.39875,R,ugm-3,4.78125,R,ugm-3,3.679,R,ugm-3 (Ref.eq)
06-01-2023,24:00,6.500,R,ugm-3 (FIDAS),0.12473,R,ugm-3,3.44250,R,ugm-3,3.63375,R,ugm-3,4.151,R,ugm-3 (Ref.eq)
07-01-2023,01:00,6.500,R,ugm-3 (FIDAS),0.12473,R,ugm-3,2.67750,R,ugm-3,2.86875,R,ugm-3,4.340,R,ugm-3 (Ref.eq)
07-01-2023,02:00,7.200,R,ugm-3 (FIDAS),0.12473,R,ugm-3,3.44250,R,ugm-3,3.63375,R,ugm-3,4.434,R,ugm-3 (Ref.eq)
07-01-2023,03:00,6.900,R,ugm-3 (FIDAS),0.00000,R,ugm-3,1.53000,R,ugm-3,1.72125,R,ugm-3,4.623,R,ugm-3 (Ref.eq)
07-01-2023,04:00,7.100,R,ugm-3 (FIDAS),0.00000,R,ugm-3,1.14750,R,ugm-3,0.95625,R,ugm-3,4.434,R,ugm-3 (Ref.eq)
07-01-2023,05:00,6.600,R,ugm-3 (FIDAS),0.00000,R,ugm-3,1.14750,R,ugm-3,1.14750,R,ugm-3,4.151,R,ugm-3 (Ref.eq)
07-01-2023,06:00,7.100,R,ugm-3 (FIDAS),0.12473,R,ugm-3,1.72125,R,ugm-3,1.91250,R,ugm-3,3.962,R,ugm-3 (Ref.eq)
07-01-2023,07:00,7.300,R,ugm-3 (FIDAS),0.12473,R,ugm-3,2.67750,R,ugm-3,3.06000,R,ugm-3,4.434,R,ugm-3 (Ref.eq)
07-01-2023,08:00,9.000,R,ugm-3 (FIDAS),0.24946,R,ugm-3,4.20750,R,ugm-3,4.59000,R,ugm-3,4.717,R,ugm-3 (Ref.eq)
07-01-2023,09:00,8.100,R,ugm-3 (FIDAS),0.37419,R,ugm-3,5.16375,R,ugm-3,5.73750,R,ugm-3,4.717,R,ugm-3 (Ref.eq)
07-01-2023,10:00,6.300,R,ugm-3 (FIDAS),0.49892,R,ugm-3,6.50250,R,ugm-3,7.26750,R,ugm-3,3.962,R,ugm-3 (Ref.eq)
07-01-2023,11:00,6.400,R,ugm-3 (FIDAS),0.74838,R,ugm-3,7.65000,R,ugm-3,8.98875,R,ugm-3,4.151,R,ugm-3 (Ref.eq)
07-01-2023,12:00,8.600,R,ugm-3 (FIDAS),0.99784,R,ugm-3,7.45875,R,ugm-3,8.98875,R,ugm-3,5.189,R,ugm-3 (Ref.eq)
07-01-2023,13:00,7.300,R,ugm-3 (FIDAS),1.12257,R,ugm-3,7.07625,R,ugm-3,8.60625,R,ugm-3,4.906,R,ugm-3 (Ref.eq)
07-01-2023,14:00,7.000,R,ugm-3 (FIDAS),1.12257,R,ugm-3,8.41500,R,ugm-3,10.13625,R,ugm-3,4.717,R,ugm-3 (Ref.eq)
07-01-2023,15:00,5.400,R,ugm-3 (FIDAS),1.37203,R,ugm-3,10.71000,R,ugm-3,12.62250,R,ugm-3,4.057,R,ugm-3 (Ref.eq)
07-01-2023,16:00,7.100,R,ugm-3 (FIDAS),0.87311,R,ugm-3,12.81375,R,ugm-3,14.15250,R,ugm-3,4.434,R,ugm-3 (Ref.eq)
07-01-2023,17:00,8.600,R,ugm-3 (FIDAS),0.62365,R,ugm-3,9.56250,R,ugm-3,10.71000,R,ugm-3,5.566,R,ugm-3 (Ref.eq)
07-01-2023,18:00,8.800,R,ugm-3 (FIDAS),3.99136,R,ugm-3,14.72625,R,ugm-3,20.84625,R,ugm-3,5.660,R,ugm-3 (Ref.eq)
07-01-2023,19:00,3.800,R,ugm-3 (FIDAS),0.49892,R,ugm-3,7.07625,R,ugm-3,7.84125,R,ugm-3,2.642,R,ugm-3 (Ref.eq)
07-01-2023,20:00,6.900,R,ugm-3 (FIDAS),0.37419,R,ugm-3,9.75375,R,ugm-3,10.32750,R,ugm-3,4.811,R,ugm-3 (Ref.eq)
07-01-2023,21:00,10.500,R,ugm-3 (FIDAS),0.24946,R,ugm-3,14.91750,R,ugm-3,15.30000,R,ugm-3,6.321,R,ugm-3 (Ref.eq)
07-01-2023,22:00,14.900,R,ugm-3 (FIDAS),0.24946,R,ugm-3,13.19625,R,ugm-3,13.57875,R,ugm-3,7.830,R,ugm-3 (Ref.eq)
07-01-2023,23:00,17.200,R,ugm-3 (FIDAS),0.24946,R,ugm-3,9.18000,R,ugm-3,9.56250,R,ugm-3,8.962,R,ugm-3 (Ref.eq)
07-01-2023,24:00,16.600,R,ugm-3 (FIDAS),0.12473,R,ugm-3,5.54625,R,ugm-3,5.73750,R,ugm-3,8.491,R,ugm-3 (Ref.eq)
08-01-2023,01:00,16.000,R,ugm-3 (FIDAS),0.12473,R,ugm-3,5.35500,R,ugm-3,5.54625,R,ugm-3,8.208,R,ugm-3 (Ref.eq)
08-01-2023,02:00,13.900,R,ugm-3 (FIDAS),0.12473,R,ugm-3,6.12000,R,ugm-3,6.31125,R,ugm-3,7.453,R,ugm-3 (Ref.eq)
08-01-2023,03:00,13.200,R,ugm-3 (FIDAS),0.12473,R,ugm-3,2.86875,R,ugm-3,3.06000,R,ugm-3,7.359,R,ugm-3 (Ref.eq)
08-01-2023,04:00,8.300,R,ugm-3 (FIDAS),0.00000,R,ugm-3,1.33875,R,ugm-3,1.33875,R,ugm-3,4.906,R,ugm-3 (Ref.eq)
08-01-2023,05:00,6.400,R,ugm-3 (FIDAS),0.00000,R,ugm-3,2.10375,R,ugm-3,2.10375,R,ugm-3,4.151,R,ugm-3 (Ref.eq)
08-01-2023,06:00,3.600,R,ugm-3 (FIDAS),0.12473,R,ugm-3,2.10375,R,ugm-3,2.29500,R,ugm-3,2.170,R,ugm-3 (Ref.eq)
08-01-2023,07:00,2.700,R,ugm-3 (FIDAS),0.12473,R,ugm-3,3.44250,R,ugm-3,3.63375,R,ugm-3,1.604,R,ugm-3 (Ref.eq)
08-01-2023,08:00,3.300,R,ugm-3 (FIDAS),0.24946,R,ugm-3,5.54625,R,ugm-3,5.92875,R,ugm-3,1.792,R,ugm-3 (Ref.eq)
08-01-2023,09:00,4.600,R,ugm-3 (FIDAS),0.37419,R,ugm-3,6.50250,R,ugm-3,7.07625,R,ugm-3,2.547,R,ugm-3 (Ref.eq)
08-01-2023,10:00,9.200,R,ugm-3 (FIDAS),0.62365,R,ugm-3,7.84125,R,ugm-3,8.79750,R,ugm-3,4.717,R,ugm-3 (Ref.eq)
08-01-2023,11:00,8.500,R,ugm-3 (FIDAS),0.62365,R,ugm-3,9.56250,R,ugm-3,10.32750,R,ugm-3,4.623,R,ugm-3 (Ref.eq)
08-01-2023,12:00,4.800,R,ugm-3 (FIDAS),0.62365,R,ugm-3,11.09250,R,ugm-3,12.04875,R,ugm-3,3.208,R,ugm-3 (Ref.eq)
08-01-2023,13:00,3.900,R,ugm-3 (FIDAS),0.74838,R,ugm-3,10.13625,R,ugm-3,11.28375,R,ugm-3,2.642,R,ugm-3 (Ref.eq)
08-01-2023,14:00,4.800,R,ugm-3 (FIDAS),0.99784,R,ugm-3,16.83000,R,ugm-3,18.36000,R,ugm-3,3.019,R,ugm-3 (Ref.eq)
08-01-2023,15:00,4.700,R,ugm-3 (FIDAS),0.49892,R,ugm-3,11.66625,R,ugm-3,12.43125,R,ugm-3,3.208,R,ugm-3 (Ref.eq)
08-01-2023,16:00,5.000,R,ugm-3 (FIDAS),0.62365,R,ugm-3,13.96125,R,ugm-3,14.72625,R,ugm-3,3.585,R,ugm-3 (Ref.eq)
08-01-2023,17:00,3.600,R,ugm-3 (FIDAS),0.37419,R,ugm-3,11.66625,R,ugm-3,12.24000,R,ugm-3,2.453,R,ugm-3 (Ref.eq)
08-01-2023,18:00,1.400,R,ugm-3 (FIDAS),0.37419,R,ugm-3,5.92875,R,ugm-3,6.31125,R,ugm-3,0.755,R,ugm-3 (Ref.eq)
08-01-2023,19:00,3.000,R,ugm-3 (FIDAS),0.49892,R,ugm-3,13.00500,R,ugm-3,13.77000,R,ugm-3,2.075,R,ugm-3 (Ref.eq)
08-01-2023,20:00,8.400,R,ugm-3 (FIDAS),0.62365,R,ugm-3,25.05375,R,ugm-3,25.81875,R,ugm-3,6.415,R,ugm-3 (Ref.eq)
08-01-2023,21:00,8.700,R,ugm-3 (FIDAS),0.49892,R,ugm-3,26.01000,R,ugm-3,26.77500,R,ugm-3,5.283,R,ugm-3 (Ref.eq)
08-01-2023,22:00,10.900,R,ugm-3 (FIDAS),0.49892,R,ugm-3,19.31625,R,ugm-3,19.89000,R,ugm-3,6.038,R,ugm-3 (Ref.eq)
08-01-2023,23:00,8.900,R,ugm-3 (FIDAS),0.24946,R,ugm-3,11.66625,R,ugm-3,12.04875,R,ugm-3,5.472,R,ugm-3 (Ref.eq)
08-01-2023,24:00,8.000,R,ugm-3 (FIDAS),0.12473,R,ugm-3,8.60625,R,ugm-3,8.98875,R,ugm-3,4.434,R,ugm-3 (Ref.eq)
09-01-2023,01:00,6.400,R,ugm-3 (FIDAS),0.12473,R,ugm-3,8.41500,R,ugm-3,8.60625,R,ugm-3,3.868,R,ugm-3 (Ref.eq)
09-01-2023,02:00,6.200,R,ugm-3 (FIDAS),0.12473,R,ugm-3,7.45875,R,ugm-3,7.65000,R,ugm-3,3.868,R,ugm-3 (Ref.eq)
09-01-2023,03:00,4.900,R,ugm-3 (FIDAS),0.00000,R,ugm-3,4.97250,R,ugm-3,4.97250,R,ugm-3,3.302,R,ugm-3 (Ref.eq)
09-01-2023,04:00,4.200,R,ugm-3 (FIDAS),0.00000,R,ugm-3,2.29500,R,ugm-3,2.29500,R,ugm-3,2.359,R,ugm-3 (Ref.eq)
09-01-2023,05:00,5.100,R,ugm-3 (FIDAS),0.00000,R,ugm-3,2.67750,R,ugm-3,2.67750,R,ugm-3,2.642,R,ugm-3 (Ref.eq)
09-01-2023,06:00,6.400,R,ugm-3 (FIDAS),0.12473,R,ugm-3,4.97250,R,ugm-3,5.16375,R,ugm-3,3.302,R,ugm-3 (Ref.eq)
09-01-2023,07:00,7.400,R,ugm-3 (FIDAS),0.49892,R,ugm-3,8.41500,R,ugm-3,9.18000,R,ugm-3,3.962,R,ugm-3 (Ref.eq)
09-01-2023,08:00,8.900,R,ugm-3 (FIDAS),1.37203,R,ugm-3,15.49125,R,ugm-3,17.59500,R,ugm-3,4.528,R,ugm-3 (Ref.eq)
09-01-2023,09:00,9.900,R,ugm-3 (FIDAS),2.36987,R,ugm-3,22.56750,R,ugm-3,26.20125,R,ugm-3,5.094,R,ugm-3 (Ref.eq)
09-01-2023,10:00,10.500,R,ugm-3 (FIDAS),2.61933,R,ugm-3,18.93375,R,ugm-3,22.95000,R,ugm-3,5.943,R,ugm-3 (Ref.eq)
09-01-2023,11:00,6.500,R,ugm-3 (FIDAS),1.62149,R,ugm-3,10.13625,R,ugm-3,12.62250,R,ugm-3,4.057,R,ugm-3 (Ref.eq)
09-01-2023,12:00,3.400,R,ugm-3 (FIDAS),0.99784,R,ugm-3,4.39875,R,ugm-3,5.92875,R,ugm-3,1.698,R,ugm-3 (Ref.eq)
09-01-2023,13:00,4.800,R,ugm-3 (FIDAS),0.74838,R,ugm-3,4.01625,R,ugm-3,5.16375,R,ugm-3,2.453,R,ugm-3 (Ref.eq)
09-01-2023,14:00,6.600,R,ugm-3 (FIDAS),0.49892,R,ugm-3,2.67750,R,ugm-3,3.44250,R,ugm-3,3.585,R,ugm-3 (Ref.eq)
09-01-2023,15:00,7.900,R,ugm-3 (FIDAS),0.62365,R,ugm-3,3.44250,R,ugm-3,4.39875,R,ugm-3,4.151,R,ugm-3 (Ref.eq)
09-01-2023,16:00,7.200,R,ugm-3 (FIDAS),0.62365,R,ugm-3,5.92875,R,ugm-3,6.88500,R,ugm-3,3.868,R,ugm-3 (Ref.eq)
09-01-2023,17:00,7.100,R,ugm-3 (FIDAS),0.49892,R,ugm-3,8.22375,R,ugm-3,8.98875,R,ugm-3,3.868,R,ugm-3 (Ref.eq)
09-01-2023,18:00,7.700,R,ugm-3 (FIDAS),1.37203,R,ugm-3,10.32750,R,ugm-3,12.43125,R,ugm-3,4.151,R,ugm-3 (Ref.eq)
09-01-2023,19:00,7.600,R,ugm-3 (FIDAS),0.99784,R,ugm-3,10.32750,R,ugm-3,12.04875,R,ugm-3,4.151,R,ugm-3 (Ref.eq)
09-01-2023,20:00,9.100,R,ugm-3 (FIDAS),1.12257,R,ugm-3,13.00500,R,ugm-3,14.72625,R,ugm-3,4.811,R,ugm-3 (Ref.eq)
09-01-2023,21:00,11.500,R,ugm-3 (FIDAS),0.49892,R,ugm-3,11.66625,R,ugm-3,12.43125,R,ugm-3,6.226,R,ugm-3 (Ref.eq)
09-01-2023,22:00,15.400,R,ugm-3 (FIDAS),0.74838,R,ugm-3,21.22875,R,ugm-3,22.37625,R,ugm-3,8.491,R,ugm-3 (Ref.eq)
09-01-2023,23:00,16.400,R,ugm-3 (FIDAS),0.37419,R,ugm-3,10.71000,R,ugm-3,11.28375,R,ugm-3,9.057,R,ugm-3 (Ref.eq)
09-01-2023,24:00,16.600,R,ugm-3 (FIDAS),0.12473,R,ugm-3,8.41500,R,ugm-3,8.60625,R,ugm-3,8.868,R,ugm-3 (Ref.eq)
10-01-2023,01:00,15.800,R,ugm-3 (FIDAS),0.24946,R,ugm-3,8.22375,R,ugm-3,8.60625,R,ugm-3,8.396,R,ugm-3 (Ref.eq)
10-01-2023,02:00,17.000,R,ugm-3 (FIDAS),0.12473,R,ugm-3,12.24000,R,ugm-3,12.62250,R,ugm-3,8.774,R,ugm-3 (Ref.eq)
10-01-2023,03:00,16.300,R,ugm-3 (FIDAS),0.12473,R,ugm-3,10.71000,R,ugm-3,10.90125,R,ugm-3,8.396,R,ugm-3 (Ref.eq)
10-01-2023,04:00,15.600,R,ugm-3 (FIDAS),0.24946,R,ugm-3,12.04875,R,ugm-3,12.43125,R,ugm-3,8.113,R,ugm-3 (Ref.eq)
10-01-2023,05:00,14.800,R,ugm-3 (FIDAS),0.24946,R,ugm-3,10.71000,R,ugm-3,11.09250,R,ugm-3,7.642,R,ugm-3 (Ref.eq)
10-01-2023,06:00,15.700,R,ugm-3 (FIDAS),0.49892,R,ugm-3,14.53500,R,ugm-3,15.49125,R,ugm-3,7.642,R,ugm-3 (Ref.eq)
10-01-2023,07:00,17.100,R,ugm-3 (FIDAS),1.62149,R,ugm-3,34.04250,R,ugm-3,36.52875,R,ugm-3,8.019,R,ugm-3 (Ref.eq)
10-01-2023,08:00,13.900,R,ugm-3 (FIDAS),1.99568,R,ugm-3,35.76375,R,ugm-3,38.82375,R,ugm-3,7.830,R,ugm-3 (Ref.eq)
10-01-2023,09:00,7.600,R,ugm-3 (FIDAS),1.49676,R,ugm-3,26.01000,R,ugm-3,28.49625,R,ugm-3,5.377,R,ugm-3 (Ref.eq)
10-01-2023,10:00,4.400,R,ugm-3 (FIDAS),1.49676,R,ugm-3,14.53500,R,ugm-3,16.83000,R,ugm-3,2.736,R,ugm-3 (Ref.eq)
10-01-2023,11:00,1.600,R,ugm-3 (FIDAS),0.87311,R,ugm-3,12.04875,R,ugm-3,13.38750,R,ugm-3,0.849,R,ugm-3 (Ref.eq)
10-01-2023,12:00,1.600,R,ugm-3 (FIDAS),2.99352,R,ugm-3,14.34375,R,ugm-3,18.93375,R,ugm-3,1.038,R,ugm-3 (Ref.eq)
10-01-2023,13:00,2.300,R,ugm-3 (FIDAS),3.11825,R,ugm-3,14.91750,R,ugm-3,19.89000,R,ugm-3,1.509,R,ugm-3 (Ref.eq)
10-01-2023,14:00,7.600,R,ugm-3 (FIDAS),3.86663,R,ugm-3,20.46375,R,ugm-3,26.39250,R,ugm-3,5.377,R,ugm-3 (Ref.eq)
10-01-2023,15:00,14.400,R,ugm-3 (FIDAS),2.12041,R,ugm-3,16.06500,R,ugm-3,19.31625,R,ugm-3,9.623,R,ugm-3 (Ref.eq)
10-01-2023,16:00,8.300,R,ugm-3 (FIDAS),1.37203,R,ugm-3,17.40375,R,ugm-3,19.50750,R,ugm-3,5.849,R,ugm-3 (Ref.eq)
10-01-2023,17:00,10.400,R,ugm-3 (FIDAS),0.99784,R,ugm-3,18.55125,R,ugm-3,20.08125,R,ugm-3,6.887,R,ugm-3 (Ref.eq)
10-01-2023,18:00,9.400,R,ugm-3 (FIDAS),0.87311,R,ugm-3,15.10875,R,ugm-3,16.44750,R,ugm-3,6.698,R,ugm-3 (Ref.eq)
10-01-2023,19:00,4.600,R,ugm-3 (FIDAS),0.74838,R,ugm-3,13.96125,R,ugm-3,15.10875,R,ugm-3,3.396,R,ugm-3 (Ref.eq)
10-01-2023,20:00,3.700,R,ugm-3 (FIDAS),0.74838,R,ugm-3,12.04875,R,ugm-3,13.00500,R,ugm-3,2.736,R,ugm-3 (Ref.eq)
10-01-2023,21:00,3.200,R,ugm-3 (FIDAS),0.49892,R,ugm-3,9.37125,R,ugm-3,10.13625,R,ugm-3,2.264,R,ugm-3 (Ref.eq)
10-01-2023,22:00,2.400,R,ugm-3 (FIDAS),0.49892,R,ugm-3,7.65000,R,ugm-3,8.41500,R,ugm-3,1.698,R,ugm-3 (Ref.eq)
10-01-2023,23:00,2.900,R,ugm-3 (FIDAS),0.12473,R,ugm-3,2.10375,R,ugm-3,2.29500,R,ugm-3,1.792,R,ugm-3 (Ref.eq)
10-01-2023,24:00,6.100,R,ugm-3 (FIDAS),0.00000,R,ugm-3,0.76500,R,ugm-3,0.76500,R,ugm-3,3.396,R,ugm-3 (Ref.eq)
11-01-2023,01:00,7.700,R,ugm-3 (FIDAS),0.00000,R,ugm-3,0.57375,R,ugm-3,0.57375,R,ugm-3,3.962,R,ugm-3 (Ref.eq)
11-01-2023,02:00,10.200,R,ugm-3 (FIDAS),0.00000,R,ugm-3,3.06000,R,ugm-3,3.06000,R,ugm-3,5.472,R,ugm-3 (Ref.eq)
11-01-2023,03:00,10.900,R,ugm-3 (FIDAS),0.00000,R,ugm-3,2.10375,R,ugm-3,2.10375,R,ugm-3,6.132,R,ugm-3 (Ref.eq)
11-01-2023,04:00,11.800,R,ugm-3 (FIDAS),0.00000,R,ugm-3,1.72125,R,ugm-3,1.72125,R,ugm-3,6.415,R,ugm-3 (Ref.eq)
11-01-2023,05:00,13.300,R,ugm-3 (FIDAS),0.12473,R,ugm-3,2.48625,R,ugm-3,2.67750,R,ugm-3,6.887,R,ugm-3 (Ref.eq)
11-01-2023,06:00,12.400,R,ugm-3 (FIDAS),0.24946,R,ugm-3,4.97250,R,ugm-3,5.54625,R,ugm-3,6.509,R,ugm-3 (Ref.eq)